Regional Weather Roundup
Issued by NWS

Home | Current Version | Previous Version | Graphics & Text | Print | Product List | Glossary On
Versions: 1 2 3 4 5 6 7 8 9 10 11 12 13 14 15 16 17 18 19 20 21 22 23 24 25 26 27 28 29 30 31 32 33 34 35 36 37 38 39 40 41 42 43 44 45 46 47 48 49 50
000
ASUS43 KOAX 251910
RWRNE

WEATHER ROUNDUP FOR NEBRASKA
NATIONAL WEATHER SERVICE OMAHA NE
100 PM CST SUN FEB 25 2018

NOTES: SATELLITE DATA IS BEING USED TO AUGMENT CLOUD COVER ABOVE
       12000 FEET.
       "FAIR" INDICATES FEW OR NO CLOUDS BELOW 12,000 FEET WITH NO
       SIGNIFICANT WEATHER AND/OR OBSTRUCTIONS TO VISIBILITY.


NEZ001>004-019>022-054>056-252000-
NEBRASKA PANHANDLE

CITY           SKY/WX    TMP DP  RH WIND       PRES   REMARKS
SCOTTSBLUFF    SUNNY     35  14  42 W22G32    29.87F WCI  23
ALLIANCE       SUNNY     32  17  54 W15       29.85F WCI  22
CHADRON        SUNNY     30  18  60 W7        29.86S WCI  23
GORDON         FAIR      32  15  49 W9        29.84S WCI  24
KIMBALL        SUNNY     33  14  46 W20G26    29.87S WCI  21
SIDNEY         SUNNY     38   9  30 NW30G37   29.89F WCI  26
$$

NEZ057>060-069>072-079>082-252000-
SOUTHWEST NEBRASKA

CITY           SKY/WX    TMP DP  RH WIND       PRES   REMARKS
NORTH PLATTE   SUNNY     37  19  48 W14       29.93F WCI  28
IMPERIAL       SUNNY     41  12  30 W20G28    29.93F
LEXINGTON      SUNNY     44  18  35 W16       29.95F
MCCOOK         SUNNY     45  17  32 W15       29.95F
OGALLALA       SUNNY     39  19  43 W20G26    29.91S WCI  30
$$

NEZ005>010-023>029-035>040-094-252000-
NORTH CENTRAL NEBRASKA

CITY           SKY/WX    TMP DP  RH WIND       PRES   REMARKS
VALENTINE      MOSUNNY   33  18  53 SW8       29.86F WCI  26
AINSWORTH      CLOUDY    33  19  57 W9        29.88S WCI  25
BROKEN BOW     SUNNY     32  19  58 W12       29.92R WCI  23
O`NEILL        SUNNY     32  19  59 W7        29.91S WCI  26
ORD            SUNNY     39  20  46 W12       29.91F WCI  32
THEDFORD       SUNNY     37  19  48 W14       29.89F WCI  28
$$

NEZ041-046>049-061>064-073>077-083>087-252000-
SOUTH CENTRAL NEBRASKA

CITY           SKY/WX    TMP DP  RH WIND       PRES   REMARKS
GRAND ISLAND   SUNNY     45  21  39 W14       29.95F
AURORA         SUNNY     44  24  45 W8G17     29.96F
HASTINGS       SUNNY     45  16  31 W20G25    29.95F
HEBRON         SUNNY     46  25  44 SW7       30.00F
HOLDREGE       SUNNY     46  15  28 SW12G24   29.95F
KEARNEY        SUNNY     44  15  31 W17       29.95F
YORK           SUNNY     41  28  60 SW13      29.97F
$$

NEZ011>018-030>034-042>045-252000-
NORTHEAST NEBRASKA

CITY           SKY/WX    TMP DP  RH WIND       PRES   REMARKS
NORFOLK        SUNNY     36  18  48 VRB7      29.92S WCI  30
ALBION         SUNNY     38  21  51 W3        29.93F
BLAIR          SUNNY     35  24  64 SW8       29.98S WCI  28
COLUMBUS       SUNNY     36  18  48 SW8       29.97S WCI  30
FREMONT        SUNNY     35  22  58 SW8       29.99S WCI  29
TEKAMAH        SUNNY     34  23  64 S9        29.98S WCI  27
WAYNE          SUNNY     34  19  54 W12       29.93S WCI  25
$$

NEZ050>053-065>068-078-088>093-252000-
SOUTHEAST NEBRASKA

CITY           SKY/WX    TMP DP  RH WIND       PRES   REMARKS
LINCOLN        SUNNY     42  27  55 SW12      30.01S
OMAHA EPPLEY   PTSUNNY   39  21  48 SW7       30.00F WCI  34
BEATRICE       SUNNY     44  29  55 SW13      30.01F
FALLS CITY     MOSUNNY   45  23  42 SW14G25   30.03F
NEBRASKA CITY  SUNNY     41  32  69 SW12      30.01F
PLATTSMOUTH    SUNNY     37  28  69 W6        30.01S WCI  32
$$

NEZ044-045-051>053-067-252000-
OMAHA AREA

CITY           SKY/WX    TMP DP  RH WIND       PRES   REMARKS
OMAHA EPPLEY   PTSUNNY   39  21  48 SW7       30.00F WCI  34
BLAIR          SUNNY     35  24  64 SW8       29.98S WCI  28
FREMONT        SUNNY     35  22  58 SW8       29.99S WCI  29
MILLARD        SUNNY     38  24  55 SW6       30.00F WCI  34
OFFUTT AFB     SUNNY     38  25  58 SW8       30.00F WCI  33
PLATTSMOUTH    SUNNY     37  28  69 W6        30.01S WCI  32
WAHOO          FAIR      37  22  56 SW8       29.99F WCI  30
$$




USA.gov is the U.S. government's official web portal to all federal, state and local government web resources and services.